QPF
0.03 0.01 0.01 0.02 0.02 0.02 0.02 0.01 0.01 0.01 0.02 0.02 0.02 0.01 0.01 0.00 0.01 0.01 0.03 0.03 0.03 0.04 0.04 0.04 0.03 0.03 0.02 0.02 0.02 0.02 0.02 0.02 0.02 0.02 0.02 0.02 0.02 0.02 0.03 0.04 0.04 0.04 0.04
0.02 0.01 0.01 0.02 0.02 0.02 0.03 0.02 0.01 0.01 0.02 0.02 0.02 0.01 0.01 0.01 0.01 0.01 0.02 0.02 0.02 0.04 0.03 0.03 0.06 0.05 0.04 0.03 0.03 0.02 0.02 0.02 0.03 0.03 0.03 0.02 0.02 0.01 0.01 0.03 0.05 0.04 0.04
0.03 0.01 0.01 0.01 0.02 0.03 0.03 0.04 0.02 0.02 0.02 0.02 0.03 0.02 0.01 0.01 0.01 0.01 0.01 0.02 0.02 0.03 0.03 0.03 0.05 0.08 0.08 0.05 0.04 0.03 0.03 0.03 0.03 0.04 0.04 0.04 0.03 0.02 0.01 0.02 0.04 0.05 0.04
0.04 0.02 0.01 0.01 0.01 0.03 0.04 0.04 0.03 0.03 0.02 0.02 0.02 0.02 0.01 0.01 0.01 0.01 0.01 0.02 0.02 0.01 0.02 0.03 0.04 0.05 0.08 0.08 0.05 0.04 0.03 0.03 0.03 0.03 0.03 0.04 0.03 0.03 0.02 0.02 0.03 0.05 0.06
0.05 0.03 0.01 0.01 0.01 0.03 0.04 0.04 0.04 0.03 0.02 0.02 0.02 0.02 0.01 0.01 0.01 0.01 0.00 0.01 0.02 0.02 0.01 0.01 0.03 0.04 0.06 0.06 0.06 0.06 0.04 0.03 0.02 0.02 0.02 0.02 0.02 0.03 0.03 0.02 0.03 0.04 0.05
0.07 0.04 0.02 0.02 0.02 0.02 0.04 0.04 0.03 0.03 0.04 0.03 0.02 0.02 0.02 0.01 0.01 0.01 0.01 0.01 0.01 0.01 0.01 0.01 0.02 0.04 0.03 0.05 0.05 0.05 0.04 0.03 0.02 0.02 0.01 0.01 0.02 0.02 0.02 0.02 0.03 0.03 0.03
0.07 0.06 0.03 0.03 0.03 0.02 0.03 0.03 0.03 0.03 0.03 0.04 0.03 0.03 0.03 0.02 0.01 0.00 0.01 0.01 0.01 0.01 0.01 0.01 0.01 0.01 0.02 0.04 0.05 0.04 0.03 0.03 0.03 0.02 0.01 0.01 0.02 0.02 0.02 0.02 0.02 0.02 0.02
0.09 0.08 0.05 0.04 0.03 0.02 0.03 0.04 0.04 0.02 0.02 0.03 0.04 0.04 0.04 0.04 0.02 0.01 0.00 0.00 0.01 0.01 0.01 0.01 0.00 0.00 0.01 0.03 0.04 0.04 0.04 0.04 0.04 0.04 0.03 0.02 0.02 0.02 0.02 0.02 0.01 0.02 0.02
0.11 0.09 0.08 0.05 0.04 0.03 0.03 0.03 0.04 0.03 0.02 0.02 0.04 0.04 0.04 0.03 0.02 0.02 0.01 0.00 0.00 0.00 0.00 0.00 0.00 0.00 0.01 0.01 0.02 0.04 0.05 0.04 0.04 0.04 0.04 0.03 0.03 0.02 0.02 0.02 0.01 0.01 0.01
0.14 0.10 0.10 0.08 0.05 0.04 0.03 0.03 0.03 0.03 0.02 0.02 0.04 0.04 0.04 0.03 0.02 0.02 0.01 0.01 0.01 0.00 0.00 0.00 0.01 0.00 0.01 0.01 0.01 0.02 0.03 0.03 0.03 0.04 0.04 0.03 0.03 0.03 0.02 0.02 0.02 0.01 0.01
0.14 0.12 0.11 0.11 0.09 0.06 0.04 0.03 0.03 0.04 0.03 0.02 0.03 0.04 0.04 0.04 0.03 0.02 0.01 0.01 0.01 0.01 0.00 0.01 0.01 0.01 0.01 0.01 0.01 0.01 0.02 0.02 0.03 0.04 0.04 0.04 0.03 0.03 0.03 0.02 0.02 0.02 0.02
0.13 0.12 0.10 0.10 0.10 0.08 0.05 0.04 0.03 0.03 0.03 0.03 0.03 0.04 0.04 0.05 0.05 0.03 0.02 0.01 0.01 0.01 0.01 0.01 0.01 0.01 0.01 0.01 0.01 0.02 0.01 0.01 0.01 0.02 0.04 0.05 0.03 0.02 0.02 0.02 0.02 0.03 0.03
0.12 0.13 0.12 0.11 0.11 0.10 0.07 0.04 0.03 0.04 0.03 0.04 0.04 0.04 0.04 0.04 0.05 0.05 0.03 0.02 0.01 0.01 0.01 0.02 0.01 0.01 0.01 0.01 0.02 0.02 0.02 0.02 0.01 0.02 0.02 0.03 0.03 0.02 0.02 0.02 0.02 0.02 0.02
0.11 0.12 0.12 0.10 0.10 0.09 0.08 0.06 0.04 0.03 0.03 0.03 0.04 0.05 0.05 0.04 0.05 0.05 0.04 0.02 0.01 0.01 0.01 0.01 0.01 0.01 0.02 0.01 0.02 0.02 0.02 0.02 0.02 0.02 0.02 0.02 0.03 0.03 0.02 0.02 0.02 0.01 0.02
0.08 0.10 0.11 0.11 0.10 0.09 0.07 0.06 0.05 0.03 0.03 0.03 0.03 0.05 0.05 0.05 0.05 0.05 0.05 0.02 0.02 0.02 0.01 0.01 0.01 0.01 0.02 0.02 0.03 0.03 0.03 0.03 0.02 0.01 0.01 0.01 0.01 0.02 0.02 0.02 0.02 0.02 0.02
0.07 0.08 0.10 0.10 0.10 0.09 0.07 0.05 0.03 0.03 0.02 0.02 0.02 0.04 0.05 0.05 0.06 0.06 0.05 0.03 0.01 0.01 0.01 0.01 0.01 0.01 0.02 0.02 0.03 0.03 0.03 0.03 0.03 0.02 0.02 0.01 0.01 0.01 0.01 0.02 0.02 0.02 0.02
0.06 0.06 0.09 0.10 0.10 0.09 0.08 0.05 0.03 0.02 0.02 0.02 0.02 0.04 0.05 0.05 0.06 0.06 0.05 0.03 0.01 0.01 0.01 0.01 0.01 0.01 0.01 0.02 0.03 0.03 0.04 0.03 0.02 0.02 0.02 0.01 0.01 0.01 0.01 0.02 0.02 0.02 0.02
0.07 0.06 0.07 0.09 0.10 0.09 0.08 0.06 0.04 0.02 0.02 0.02 0.02 0.03 0.05 0.05 0.05 0.06 0.06 0.04 0.02 0.01 0.01 0.01 0.01 0.01 0.01 0.02 0.03 0.03 0.04 0.03 0.02 0.02 0.02 0.02 0.02 0.02 0.01 0.01 0.01 0.02 0.02
0.05 0.05 0.05 0.07 0.09 0.09 0.09 0.07 0.04 0.03 0.01 0.02 0.02 0.03 0.04 0.05 0.05 0.05 0.06 0.05 0.03 0.02 0.01 0.01 0.01 0.01 0.01 0.01 0.02 0.03 0.03 0.03 0.03 0.02 0.02 0.03 0.03 0.03 0.02 0.02 0.02 0.02 0.02
0.03 0.03 0.04 0.05 0.06 0.08 0.08 0.08 0.06 0.04 0.02 0.02 0.02 0.02 0.03 0.04 0.04 0.05 0.06 0.05 0.03 0.03 0.02 0.02 0.02 0.02 0.02 0.02 0.02 0.02 0.03 0.03 0.03 0.02 0.03 0.03 0.03 0.03 0.03 0.03 0.03 0.02 0.02
0.03 0.03 0.03 0.04 0.04 0.06 0.07 0.07 0.07 0.05 0.04 0.02 0.03 0.03 0.03 0.04 0.04 0.04 0.05 0.04 0.03 0.03 0.03 0.02 0.02 0.02 0.02 0.02 0.02 0.02 0.02 0.02 0.02 0.02 0.02 0.03 0.03 0.02 0.02 0.03 0.04 0.03 0.02
0.04 0.03 0.03 0.04 0.04 0.05 0.07 0.07 0.06 0.05 0.04 0.04 0.03 0.03 0.03 0.04 0.04 0.04 0.03 0.02 0.02 0.03 0.03 0.03 0.02 0.02 0.01 0.01 0.01 0.02 0.02 0.02 0.02 0.02 0.02 0.02 0.02 0.02 0.02 0.02 0.03 0.04 0.03
0.04 0.04 0.04 0.04 0.05 0.06 0.05 0.05 0.05 0.05 0.04 0.04 0.04 0.04 0.03 0.04 0.04 0.03 0.03 0.02 0.02 0.02 0.02 0.02 0.02 0.02 0.01 0.01 0.02 0.02 0.02 0.02 0.01 0.01 0.02 0.02 0.02 0.02 0.02 0.02 0.03 0.04 0.04
0.04 0.04 0.05 0.05 0.06 0.05 0.05 0.06 0.05 0.04 0.04 0.04 0.04 0.03 0.04 0.05 0.04 0.04 0.04 0.04 0.04 0.04 0.04 0.03 0.02 0.02 0.01 0.01 0.02 0.03 0.03 0.03 0.03 0.02 0.02 0.02 0.02 0.02 0.02 0.03 0.04 0.04 0.04
0.04 0.04 0.05 0.05 0.05 0.06 0.07 0.06 0.05 0.04 0.03 0.04 0.04 0.04 0.03 0.04 0.04 0.04 0.04 0.05 0.05 0.06 0.06 0.06 0.05 0.03 0.03 0.02 0.02 0.03 0.04 0.04 0.03 0.02 0.01 0.01 0.01 0.01 0.02 0.03 0.04 0.04 0.04
0.04 0.05 0.05 0.05 0.06 0.07 0.06 0.06 0.07 0.05 0.05 0.05 0.04 0.04 0.04 0.04 0.04 0.04 0.04 0.04 0.04 0.04 0.05 0.06 0.06 0.06 0.05 0.04 0.04 0.03 0.03 0.03 0.02 0.02 0.01 0.01 0.01 0.02 0.02 0.02 0.03 0.04 0.05
MSLP
1022.36 1023.00 1023.62 1024.24 1024.85 1025.48 1026.11 1026.72 1027.29 1027.80 1028.23 1028.58 1028.84 1029.01 1029.11 1029.15 1029.15 1029.12 1029.08 1029.06 1029.05 1029.09 1029.18 1029.31 1029.49 1029.68 1029.86 1030.01 1030.11 1030.15 1030.13 1030.07 1029.97 1029.88 1029.80 1029.75 1029.71 1029.69 1029.65 1029.59 1029.48 1029.32 1029.12
1022.54 1023.20 1023.86 1024.52 1025.21 1025.91 1026.62 1027.32 1027.99 1028.59 1029.11 1029.54 1029.88 1030.11 1030.26 1030.32 1030.31 1030.25 1030.15 1030.05 1029.96 1029.91 1029.92 1029.99 1030.12 1030.29 1030.48 1030.66 1030.79 1030.87 1030.89 1030.85 1030.78 1030.69 1030.60 1030.54 1030.49 1030.45 1030.41 1030.35 1030.26 1030.13 1029.97
1022.67 1023.35 1024.05 1024.78 1025.53 1026.31 1027.10 1027.88 1028.63 1029.32 1029.94 1030.47 1030.90 1031.22 1031.44 1031.55 1031.55 1031.47 1031.33 1031.16 1030.98 1030.83 1030.74 1030.72 1030.78 1030.91 1031.08 1031.26 1031.42 1031.54 1031.61 1031.62 1031.58 1031.51 1031.43 1031.36 1031.30 1031.25 1031.20 1031.14 1031.06 1030.95 1030.82
1022.79 1023.52 1024.28 1025.06 1025.88 1026.71 1027.56 1028.39 1029.19 1029.95 1030.65 1031.27 1031.80 1032.22 1032.54 1032.73 1032.79 1032.74 1032.59 1032.37 1032.11 1031.87 1031.67 1031.55 1031.52 1031.58 1031.71 1031.87 1032.05 1032.20 1032.31 1032.37 1032.37 1032.33 1032.26 1032.19 1032.12 1032.06 1031.99 1031.93 1031.86 1031.77 1031.66
1022.96 1023.75 1024.56 1025.40 1026.26 1027.12 1027.98 1028.82 1029.64 1030.43 1031.17 1031.86 1032.48 1033.02 1033.45 1033.76 1033.93 1033.95 1033.84 1033.63 1033.35 1033.05 1032.76 1032.54 1032.41 1032.38 1032.43 1032.55 1032.71 1032.87 1033.01 1033.10 1033.14 1033.13 1033.09 1033.03 1032.95 1032.87 1032.80 1032.72 1032.65 1032.56 1032.47
1023.18 1024.03 1024.90 1025.77 1026.64 1027.50 1028.33 1029.14 1029.93 1030.70 1031.45 1032.18 1032.88 1033.52 1034.09 1034.55 1034.87 1035.03 1035.03 1034.89 1034.64 1034.32 1033.99 1033.69 1033.46 1033.33 1033.29 1033.34 1033.44 1033.58 1033.71 1033.82 1033.89 1033.91 1033.89 1033.84 1033.77 1033.69 1033.60 1033.51 1033.43 1033.34 1033.26
1023.43 1024.34 1025.24 1026.14 1027.00 1027.82 1028.59 1029.33 1030.04 1030.75 1031.48 1032.22 1032.97 1033.72 1034.42 1035.04 1035.54 1035.89 1036.05 1036.05 1035.90 1035.63 1035.30 1034.96 1034.66 1034.43 1034.28 1034.23 1034.26 1034.33 1034.43 1034.53 1034.61 1034.65 1034.66 1034.62 1034.56 1034.48 1034.39 1034.30 1034.21 1034.11 1034.01
1023.68 1024.62 1025.55 1026.44 1027.27 1028.04 1028.73 1029.37 1030.00 1030.63 1031.29 1032.02 1032.79 1033.61 1034.44 1035.22 1035.92 1036.47 1036.84 1037.03 1037.03 1036.87 1036.60 1036.27 1035.93 1035.62 1035.37 1035.21 1035.13 1035.12 1035.16 1035.23 1035.29 1035.34 1035.36 1035.36 1035.32 1035.26 1035.17 1035.08 1034.97 1034.87 1034.75
1023.87 1024.83 1025.76 1026.64 1027.43 1028.13 1028.75 1029.31 1029.83 1030.37 1030.97 1031.65 1032.42 1033.28 1034.19 1035.11 1035.98 1036.74 1037.33 1037.73 1037.93 1037.94 1037.79 1037.51 1037.17 1036.82 1036.49 1036.23 1036.03 1035.92 1035.88 1035.89 1035.93 1035.97 1036.02 1036.03 1036.03 1035.99 1035.92 1035.83 1035.73 1035.61 1035.48
1023.96 1024.92 1025.84 1026.70 1027.46 1028.12 1028.68 1029.17 1029.62 1030.08 1030.61 1031.23 1031.97 1032.83 1033.78 1034.78 1035.77 1036.70 1037.49 1038.11 1038.53 1038.73 1038.73 1038.57 1038.28 1037.92 1037.55 1037.21 1036.92 1036.71 1036.57 1036.52 1036.52 1036.55 1036.60 1036.65 1036.67 1036.67 1036.63 1036.56 1036.46 1036.34 1036.20
1023.95 1024.90 1025.80 1026.64 1027.39 1028.03 1028.56 1029.02 1029.43 1029.84 1030.31 1030.86 1031.55 1032.36 1033.29 1034.31 1035.36 1036.40 1037.35 1038.15 1038.77 1039.17 1039.36 1039.35 1039.17 1038.86 1038.49 1038.10 1037.75 1037.45 1037.24 1037.12 1037.08 1037.10 1037.15 1037.21 1037.27 1037.30 1037.29 1037.24 1037.16 1037.04 1036.90
1023.85 1024.77 1025.66 1026.49 1027.24 1027.89 1028.44 1028.91 1029.32 1029.71 1030.14 1030.63 1031.24 1031.97 1032.82 1033.79 1034.84 1035.91 1036.95 1037.89 1038.68 1039.28 1039.66 1039.83 1039.79 1039.58 1039.26 1038.88 1038.50 1038.16 1037.89 1037.71 1037.63 1037.63 1037.67 1037.75 1037.82 1037.88 1037.90 1037.87 1037.81 1037.70 1037.56
1023.69 1024.59 1025.46 1026.29 1027.05 1027.74 1028.34 1028.86 1029.31 1029.72 1030.13 1030.58 1031.10 1031.72 1032.46 1033.32 1034.29 1035.33 1036.39 1037.41 1038.33 1039.09 1039.66 1040.01 1040.15 1040.08 1039.86 1039.54 1039.18 1038.83 1038.53 1038.32 1038.21 1038.18 1038.21 1038.28 1038.37 1038.44 1038.47 1038.47 1038.41 1038.32 1038.19
1023.49 1024.38 1025.24 1026.07 1026.87 1027.60 1028.27 1028.87 1029.39 1029.85 1030.27 1030.68 1031.12 1031.63 1032.23 1032.95 1033.79 1034.75 1035.77 1036.80 1037.80 1038.70 1039.43 1039.97 1040.29 1040.39 1040.31 1040.09 1039.79 1039.47 1039.19 1038.96 1038.83 1038.78 1038.79 1038.86 1038.94 1039.00 1039.04 1039.04 1039.00 1038.91 1038.80
1023.30 1024.17 1025.02 1025.86 1026.68 1027.47 1028.22 1028.90 1029.51 1030.04 1030.50 1030.90 1031.28 1031.69 1032.16 1032.73 1033.42 1034.25 1035.19 1036.20 1037.23 1038.21 1039.08 1039.79 1040.28 1040.56 1040.63 1040.55 1040.35 1040.10 1039.85 1039.65 1039.51 1039.45 1039.46 1039.51 1039.57 1039.62 1039.65 1039.64 1039.59 1039.51 1039.40
1023.11 1023.98 1024.82 1025.65 1026.49 1027.32 1028.14 1028.90 1029.60 1030.21 1030.73 1031.15 1031.51 1031.85 1032.22 1032.65 1033.20 1033.90 1034.74 1035.69 1036.71 1037.73 1038.70 1039.53 1040.18 1040.62 1040.86 1040.92 1040.85 1040.70 1040.52 1040.36 1040.25 1040.20 1040.21 1040.24 1040.29 1040.32 1040.32 1040.29 1040.22 1040.13 1040.02
1022.93 1023.79 1024.61 1025.43 1026.27 1027.12 1027.98 1028.81 1029.59 1030.29 1030.88 1031.36 1031.74 1032.06 1032.36 1032.71 1033.14 1033.72 1034.45 1035.33 1036.31 1037.33 1038.34 1039.26 1040.03 1040.60 1040.99 1041.20 1041.26 1041.23 1041.15 1041.07 1041.02 1041.00 1041.02 1041.06 1041.10 1041.11 1041.09 1041.03 1040.94 1040.82 1040.70
1022.73 1023.58 1024.38 1025.18 1025.99 1026.84 1027.71 1028.59 1029.44 1030.22 1030.90 1031.46 1031.90 1032.24 1032.54 1032.84 1033.21 1033.70 1034.33 1035.12 1036.03 1037.03 1038.03 1038.99 1039.83 1040.51 1041.01 1041.35 1041.55 1041.65 1041.69 1041.71 1041.74 1041.79 1041.86 1041.93 1041.97 1041.98 1041.94 1041.86 1041.73 1041.59 1041.44
1022.47 1023.33 1024.11 1024.86 1025.64 1026.46 1027.32 1028.23 1029.12 1029.98 1030.75 1031.40 1031.93 1032.34 1032.68 1032.99 1033.33 1033.77 1034.33 1035.03 1035.87 1036.79 1037.76 1038.70 1039.56 1040.31 1040.90 1041.35 1041.67 1041.90 1042.07 1042.22 1042.36 1042.51 1042.65 1042.77 1042.86 1042.88 1042.84 1042.74 1042.59 1042.41 1042.23
1022.14 1023.00 1023.76 1024.48 1025.21 1025.99 1026.83 1027.73 1028.66 1029.57 1030.43 1031.18 1031.82 1032.33 1032.74 1033.10 1033.45 1033.86 1034.37 1034.99 1035.74 1036.58 1037.48 1038.38 1039.23 1039.99 1040.63 1041.17 1041.60 1041.95 1042.26 1042.54 1042.82 1043.08 1043.33 1043.53 1043.68 1043.75 1043.73 1043.63 1043.47 1043.26 1043.04
1021.72 1022.59 1023.35 1024.04 1024.73 1025.46 1026.26 1027.14 1028.08 1029.04 1029.96 1030.81 1031.55 1032.17 1032.68 1033.11 1033.50 1033.91 1034.38 1034.94 1035.60 1036.35 1037.16 1037.99 1038.80 1039.55 1040.23 1040.82 1041.34 1041.81 1042.24 1042.66 1043.07 1043.46 1043.83 1044.14 1044.37 1044.51 1044.53 1044.45 1044.29 1044.06 1043.81
1021.20 1022.10 1022.87 1023.55 1024.20 1024.89 1025.66 1026.51 1027.44 1028.42 1029.39 1030.32 1031.16 1031.88 1032.48 1032.99 1033.43 1033.86 1034.31 1034.83 1035.42 1036.08 1036.81 1037.56 1038.32 1039.05 1039.73 1040.36 1040.94 1041.50 1042.04 1042.58 1043.11 1043.63 1044.12 1044.54 1044.87 1045.09 1045.18 1045.14 1044.99 1044.76 1044.49
1020.59 1021.54 1022.34 1023.02 1023.67 1024.33 1025.06 1025.87 1026.79 1027.77 1028.77 1029.75 1030.66 1031.46 1032.15 1032.73 1033.23 1033.69 1034.15 1034.63 1035.18 1035.78 1036.44 1037.13 1037.84 1038.54 1039.21 1039.86 1040.49 1041.11 1041.73 1042.35 1042.99 1043.61 1044.20 1044.73 1045.15 1045.46 1045.62 1045.64 1045.53 1045.33 1045.06
1019.93 1020.94 1021.77 1022.48 1023.13 1023.78 1024.48 1025.27 1026.15 1027.12 1028.13 1029.13 1030.09 1030.95 1031.71 1032.36 1032.92 1033.41 1033.89 1034.38 1034.91 1035.48 1036.10 1036.76 1037.43 1038.11 1038.78 1039.43 1040.08 1040.73 1041.39 1042.07 1042.76 1043.45 1044.12 1044.72 1045.23 1045.62 1045.86 1045.95 1045.90 1045.73 1045.49
1019.24 1020.30 1021.19 1021.94 1022.61 1023.26 1023.94 1024.70 1025.56 1026.50 1027.49 1028.50 1029.48 1030.38 1031.19 1031.90 1032.52 1033.07 1033.59 1034.11 1034.66 1035.24 1035.86 1036.51 1037.18 1037.85 1038.51 1039.17 1039.82 1040.47 1041.13 1041.82 1042.52 1043.23 1043.93 1044.58 1045.15 1045.60 1045.92 1046.09 1046.11 1046.00 1045.80
1018.54 1019.65 1020.58 1021.38 1022.07 1022.73 1023.41 1024.16 1024.99 1025.90 1026.88 1027.88 1028.86 1029.79 1030.64 1031.41 1032.09 1032.70 1033.29 1033.87 1034.46 1035.09 1035.74 1036.42 1037.11 1037.79 1038.46 1039.11 1039.74 1040.37 1041.00 1041.66 1042.33 1043.02 1043.71 1044.37 1044.97 1045.48 1045.86 1046.11 1046.20 1046.17 1046.03
Thickness
5617 5617 5616 5616 5617 5618 5618 5618 5618 5617 5617 5617 5617 5617 5617 5617 5617 5617 5618 5618 5619 5620 5620 5620 5620 5620 5620 5620 5620 5620 5621 5620 5620 5620 5620 5619 5619 5619 5620 5620 5620 5620 5619
5610 5610 5609 5609 5609 5610 5611 5611 5610 5610 5609 5609 5608 5608 5609 5609 5609 5609 5610 5610 5611 5612 5612 5612 5613 5613 5613 5613 5613 5613 5613 5613 5613 5612 5613 5612 5612 5612 5612 5612 5612 5612 5612
5603 5603 5602 5601 5601 5602 5603 5603 5602 5602 5601 5600 5599 5599 5600 5600 5601 5601 5601 5602 5603 5603 5604 5604 5604 5605 5605 5605 5605 5605 5605 5605 5605 5605 5605 5604 5604 5604 5604 5604 5605 5605 5605
5594 5595 5594 5594 5594 5594 5594 5594 5594 5593 5591 5591 5590 5590 5591 5592 5592 5593 5593 5593 5594 5594 5595 5595 5596 5596 5596 5597 5597 5597 5597 5597 5597 5596 5596 5596 5596 5596 5596 5596 5597 5597 5597
5585 5586 5586 5586 5586 5585 5585 5585 5584 5584 5582 5581 5581 5581 5582 5583 5583 5584 5584 5584 5585 5585 5585 5586 5586 5587 5587 5588 5589 5589 5589 5589 5588 5588 5587 5587 5587 5587 5588 5588 5588 5588 5589
5575 5577 5577 5577 5577 5576 5576 5575 5575 5574 5573 5573 5572 5570 5571 5572 5574 5574 5575 5575 5575 5575 5576 5576 5576 5577 5578 5579 5579 5580 5580 5580 5580 5579 5579 5579 5579 5579 5579 5579 5580 5580 5580
5565 5566 5567 5567 5567 5567 5567 5566 5566 5564 5563 5563 5562 5559 5560 5561 5563 5564 5565 5565 5565 5565 5566 5566 5567 5567 5568 5569 5569 5570 5571 5571 5571 5571 5571 5571 5571 5571 5571 5571 5571 5571 5571
5556 5556 5557 5557 5557 5557 5556 5557 5557 5555 5554 5554 5554 5551 5549 5551 5552 5554 5555 5555 5555 5555 5556 5556 5557 5558 5558 5559 5560 5560 5561 5562 5562 5562 5562 5562 5562 5562 5562 5562 5562 5562 5562
5547 5547 5547 5548 5547 5547 5547 5547 5548 5547 5546 5544 5546 5545 5542 5543 5541 5542 5543 5544 5545 5546 5546 5547 5547 5548 5549 5549 5550 5551 5551 5552 5552 5553 5553 5553 5553 5553 5553 5553 5553 5552 5552
5537 5538 5538 5538 5539 5539 5538 5538 5538 5539 5539 5537 5536 5537 5537 5537 5533 5532 5533 5534 5535 5536 5537 5537 5538 5539 5539 5540 5540 5541 5541 5542 5542 5543 5543 5543 5544 5544 5544 5543 5543 5543 5542
5526 5528 5528 5528 5528 5529 5529 5529 5529 5529 5530 5530 5529 5527 5527 5526 5525 5525 5525 5524 5525 5526 5527 5528 5529 5529 5530 5530 5530 5531 5531 5532 5533 5533 5533 5534 5534 5534 5533 5533 5533 5533 5532
5516 5517 5516 5517 5518 5519 5520 5520 5520 5520 5520 5520 5520 5520 5520 5519 5517 5517 5516 5515 5516 5517 5518 5519 5520 5520 5521 5521 5521 5521 5521 5522 5522 5523 5523 5524 5523 5523 5522 5522 5522 5522 5522
5505 5506 5506 5508 5508 5508 5508 5510 5510 5511 5511 5511 5511 5511 5512 5512 5511 5510 5509 5506 5506 5506 5508 5509 5511 5511 5511 5511 5511 5512 5512 5512 5512 5512 5513 5513 5512 5512 5511 5511 5511 5511 5511
5495 5496 5497 5498 5498 5498 5498 5499 5500 5501 5502 5502 5502 5501 5502 5502 5502 5502 5502 5499 5496 5495 5497 5499 5500 5502 5501 5502 5502 5502 5502 5502 5502 5502 5502 5502 5501 5500 5500 5500 5500 5500 5499
5484 5485 5487 5487 5488 5488 5487 5488 5490 5490 5491 5492 5492 5491 5491 5492 5492 5493 5493 5493 5491 5488 5489 5490 5490 5492 5492 5492 5492 5492 5492 5492 5492 5492 5491 5491 5490 5490 5489 5489 5489 5488 5487
5473 5474 5475 5476 5476 5477 5477 5478 5479 5480 5480 5481 5481 5481 5481 5482 5482 5482 5482 5483 5483 5482 5481 5483 5481 5482 5481 5481 5481 5481 5481 5481 5481 5481 5480 5480 5479 5478 5478 5477 5476 5476 5475
5463 5464 5464 5465 5465 5467 5466 5467 5468 5468 5469 5470 5470 5471 5472 5472 5472 5472 5472 5472 5471 5471 5471 5472 5470 5470 5470 5470 5470 5470 5469 5469 5469 5469 5468 5468 5467 5466 5465 5465 5464 5463 5463
5452 5453 5453 5454 5454 5455 5456 5456 5456 5457 5458 5459 5460 5460 5462 5462 5462 5462 5462 5462 5461 5460 5460 5460 5459 5459 5458 5458 5458 5458 5458 5457 5457 5457 5457 5456 5456 5454 5453 5452 5452 5451 5450
5441 5442 5442 5442 5443 5444 5445 5445 5445 5446 5448 5449 5449 5450 5451 5452 5452 5452 5452 5452 5451 5450 5449 5449 5449 5448 5446 5446 5445 5446 5446 5445 5445 5444 5444 5444 5443 5442 5441 5440 5439 5438 5437
5429 5430 5431 5431 5430 5431 5432 5433 5434 5434 5435 5437 5438 5439 5441 5442 5443 5442 5442 5442 5440 5438 5437 5437 5436 5435 5434 5433 5433 5433 5433 5432 5432 5431 5431 5431 5429 5429 5428 5428 5427 5426 5425
5417 5418 5418 5417 5417 5418 5420 5421 5422 5422 5423 5425 5427 5428 5430 5431 5432 5432 5432 5431 5429 5428 5426 5425 5424 5423 5422 5420 5421 5421 5420 5419 5418 5418 5417 5417 5416 5416 5415 5415 5414 5413 5413
5404 5404 5404 5404 5405 5406 5408 5410 5411 5411 5411 5413 5415 5416 5418 5419 5419 5420 5421 5421 5420 5418 5417 5415 5414 5414 5413 5411 5410 5408 5406 5404 5405 5405 5402 5403 5402 5402 5402 5401 5401 5401 5400
5390 5391 5392 5392 5393 5394 5396 5398 5400 5399 5400 5401 5403 5404 5406 5407 5406 5407 5408 5408 5408 5408 5408 5406 5405 5405 5404 5402 5398 5396 5394 5393 5394 5392 5389 5390 5389 5389 5389 5388 5388 5388 5388
5378 5379 5380 5380 5381 5383 5384 5386 5387 5387 5387 5388 5391 5393 5394 5394 5395 5396 5396 5396 5396 5395 5395 5394 5394 5394 5392 5390 5388 5386 5383 5379 5378 5377 5375 5376 5377 5376 5376 5376 5375 5375 5375
5366 5367 5368 5368 5369 5370 5372 5373 5374 5374 5375 5377 5378 5380 5382 5382 5383 5384 5384 5384 5383 5382 5381 5381 5381 5381 5379 5377 5375 5370 5367 5365 5365 5365 5363 5362 5363 5362 5363 5363 5362 5362 5362
5354 5354 5355 5355 5357 5358 5360 5361 5362 5363 5364 5366 5366 5368 5370 5371 5372 5372 5371 5371 5371 5370 5368 5368 5368 5367 5365 5364 5362 5360 5357 5354 5352 5351 5352 5348 5348 5346 5348 5350 5350 5349 5349